| time (UTC) | temp F | wind direction | speed MPH | gust MPH | rain 1hr in | rain 24hr in | rain mn in | humidity % | barometer mb |
| 20260505113952 | 52 | 185 | 0.0 | 0.0 | 0.00 | 0.00 | 0.00 | 66 | 994.0 |
| 20260505113448 | 53 | 186 | 1.0 | 1.0 | 0.00 | 0.00 | 0.00 | 65 | 994.1 |
| 20260505112943 | 53 | 185 | 0.0 | 0.0 | 0.00 | 0.00 | 0.00 | 61 | 994.1 |
| 20260505112441 | 53 | 185 | 0.0 | 0.0 | 0.00 | 0.00 | 0.00 | 61 | 994.2 |
| 20260505111938 | 53 | 185 | 1.0 | 1.0 | 0.00 | 0.00 | 0.00 | 63 | 994.2 |
| 20260505111432 | 53 | 184 | 1.0 | 1.0 | 0.00 | 0.00 | 0.00 | 62 | 994.2 |
| 20260505110929 | 53 | 177 | 0.0 | 0.0 | 0.00 | 0.00 | 0.00 | 64 | 994.1 |
| 20260505110425 | 52 | 174 | 2.0 | 2.0 | 0.00 | 0.00 | 0.00 | 65 | 994.2 |
| 20260505101856 | 54 | 175 | 0.0 | 1.0 | 0.00 | 0.00 | 0.00 | 57 | 993.8 |
| 20260505101351 | 54 | 174 | 1.0 | 1.0 | 0.00 | 0.00 | 0.00 | 57 | 994.1 |
| 20260505100847 | 54 | 199 | 1.0 | 1.0 | 0.00 | 0.00 | 0.00 | 57 | 994.0 |
| 20260505100344 | 54 | 185 | 0.0 | 1.0 | 0.00 | 0.00 | 0.00 | 58 | 994.2 |
| 20260505095839 | 54 | 194 | 2.0 | 3.0 | 0.00 | 0.00 | 0.00 | 59 | 994.1 |
| 20260505095337 | 54 | 169 | 2.0 | 3.0 | 0.00 | 0.00 | 0.00 | 60 | 994.1 |
| 20260505094833 | 54 | 189 | 2.0 | 2.0 | 0.00 | 0.00 | 0.00 | 60 | 994.2 |
| 20260505094330 | 55 | 172 | 1.0 | 2.0 | 0.00 | 0.00 | 0.00 | 59 | 994.2 |
| 20260505093825 | 55 | 186 | 1.0 | 1.0 | 0.00 | 0.00 | 0.00 | 58 | 994.2 |
| 20260505093324 | 55 | 166 | 1.0 | 2.0 | 0.00 | 0.00 | 0.00 | 59 | 994.1 |
| 20260505092820 | 55 | 177 | 1.0 | 1.0 | 0.00 | 0.00 | 0.00 | 57 | 994.0 |
| 20260505092319 | 54 | 185 | 1.0 | 2.0 | 0.00 | 0.00 | 0.00 | 58 | 994.2 |
| 20260505091815 | 54 | 181 | 1.0 | 1.0 | 0.00 | 0.00 | 0.00 | 60 | 994.1 |
| 20260505091314 | 55 | 180 | 1.0 | 1.0 | 0.00 | 0.00 | 0.00 | 60 | 994.2 |
| 20260505090811 | 55 | 185 | 0.0 | 1.0 | 0.00 | 0.00 | 0.00 | 60 | 994.1 |
| 20260505090309 | 55 | 196 | 1.0 | 2.0 | 0.00 | 0.00 | 0.00 | 60 | 994.2 |
| 20260505085806 | 55 | 184 | 1.0 | 1.0 | 0.00 | 0.00 | 0.00 | 61 | 994.1 |
| 20260505085305 | 55 | 183 | 0.0 | 0.0 | 0.00 | 0.00 | 0.00 | 61 | 994.2 |
| 20260505084801 | 55 | 187 | 0.0 | 0.0 | 0.00 | 0.00 | 0.00 | 62 | 994.3 |
| 20260505084300 | 55 | 196 | 0.0 | 1.0 | 0.00 | 0.00 | 0.00 | 61 | 994.2 |
| 20260505083757 | 55 | 184 | 2.0 | 3.0 | 0.00 | 0.00 | 0.00 | 61 | 994.2 |
| 20260505083253 | 55 | 222 | 3.0 | 5.0 | 0.00 | 0.00 | 0.00 | 61 | 994.2 |
| 20260505082749 | 55 | 178 | 1.0 | 2.0 | 0.00 | 0.00 | 0.00 | 61 | 994.3 |
| 20260505082247 | 55 | 184 | 1.0 | 1.0 | 0.00 | 0.00 | 0.00 | 62 | 994.3 |
| 20260505081743 | 54 | 183 | 1.0 | 2.0 | 0.00 | 0.00 | 0.00 | 62 | 994.5 |
| 20260505081240 | 54 | 190 | 1.0 | 3.0 | 0.00 | 0.00 | 0.00 | 63 | 994.4 |
| 20260505080737 | 54 | 190 | 1.0 | 2.0 | 0.00 | 0.00 | 0.00 | 63 | 994.6 |
| 20260505080232 | 54 | 178 | 3.0 | 3.0 | 0.00 | 0.00 | 0.00 | 63 | 994.4 |
| 20260505075728 | 55 | 213 | 3.0 | 3.0 | 0.00 | 0.00 | 0.00 | 61 | 994.4 |
| 20260505075226 | 55 | 182 | 3.0 | 5.0 | 0.00 | 0.00 | 0.00 | 57 | 994.5 |
| 20260505074723 | 55 | 191 | 2.0 | 2.0 | 0.00 | 0.00 | 0.00 | 57 | 994.6 |
| 20260505074220 | 55 | 191 | 2.0 | 3.0 | 0.00 | 0.00 | 0.00 | 56 | 994.4 |
| 20260505073718 | 55 | 185 | 0.0 | 1.0 | 0.00 | 0.00 | 0.00 | 56 | 994.5 |
| 20260505073215 | 55 | 188 | 1.0 | 2.0 | 0.00 | 0.00 | 0.00 | 55 | 994.3 |
| 20260505072711 | 55 | 220 | 2.0 | 2.0 | 0.00 | 0.00 | 0.00 | 55 | 994.5 |
| 20260505072208 | 55 | 188 | 3.0 | 3.0 | 0.00 | 0.00 | 0.00 | 54 | 994.4 |
| 20260505071703 | 56 | 186 | 4.0 | 5.0 | 0.00 | 0.00 | 0.00 | 53 | 994.3 |
| 20260505071201 | 56 | 250 | 2.0 | 5.0 | 0.00 | 0.00 | 0.00 | 52 | 994.3 |
| 20260505070658 | 56 | 159 | 3.0 | 3.0 | 0.00 | 0.00 | 0.00 | 52 | 994.4 |
| 20260505070154 | 56 | 212 | 5.0 | 8.0 | 0.00 | 0.00 | 0.00 | 51 | 994.4 |
| 20260505065650 | 56 | 210 | 3.0 | 5.0 | 0.00 | 0.00 | 0.00 | 51 | 994.4 |
| 20260505065147 | 56 | 200 | 4.0 | 7.0 | 0.00 | 0.00 | 0.00 | 51 | 994.3 |
| 20260505064644 | 56 | 177 | 5.0 | 6.0 | 0.00 | 0.00 | 0.00 | 52 | 994.4 |
| 20260505064142 | 55 | 226 | 3.0 | 3.0 | 0.00 | 0.00 | 0.00 | 53 | 994.5 |
| 20260505063640 | 55 | 195 | 5.0 | 7.0 | 0.00 | 0.00 | 0.00 | 55 | 994.3 |
| 20260505063136 | 55 | 173 | 4.0 | 7.0 | 0.00 | 0.00 | 0.00 | 56 | 994.3 |
| 20260505062632 | 55 | 178 | 5.0 | 7.0 | 0.00 | 0.00 | 0.00 | 57 | 994.3 |
| 20260505062129 | 54 | 124 | 4.0 | 6.0 | 0.00 | 0.00 | 0.00 | 59 | 994.3 |
| 20260505061626 | 54 | 219 | 2.0 | 3.0 | 0.00 | 0.00 | 0.00 | 60 | 994.4 |
| 20260505061125 | 54 | 175 | 3.0 | 5.0 | 0.00 | 0.00 | 0.00 | 60 | 994.4 |
| 20260505060622 | 55 | 100 | 5.0 | 8.0 | 0.00 | 0.00 | 0.00 | 59 | 994.4 |
| 20260505060118 | 55 | 190 | 4.0 | 8.0 | 0.00 | 0.00 | 0.00 | 59 | 994.5 |
| 20260505055614 | 55 | 162 | 3.0 | 5.0 | 0.00 | 0.00 | 0.00 | 59 | 994.5 |
| 20260505055110 | 55 | 179 | 5.0 | 8.0 | 0.00 | 0.00 | 0.00 | 58 | 994.5 |
| 20260505054608 | 55 | 209 | 5.0 | 6.0 | 0.00 | 0.00 | 0.00 | 58 | 994.6 |
| 20260505054106 | 55 | 179 | 2.0 | 3.0 | 0.00 | 0.00 | 0.00 | 57 | 994.5 |
| 20260505053603 | 56 | 128 | 7.0 | 10.0 | 0.00 | 0.00 | 0.00 | 56 | 994.3 |
| 20260505053059 | 56 | 201 | 4.0 | 5.0 | 0.00 | 0.00 | 0.00 | 55 | 994.3 |
| 20260505052556 | 56 | 171 | 6.0 | 9.0 | 0.00 | 0.00 | 0.00 | 54 | 994.0 |
| 20260505052054 | 56 | 190 | 4.0 | 5.0 | 0.00 | 0.00 | 0.00 | 54 | 994.0 |
| 20260505051550 | 56 | 103 | 5.0 | 6.0 | 0.00 | 0.00 | 0.00 | 54 | 994.0 |
| 20260505051048 | 56 | 183 | 6.0 | 7.0 | 0.00 | 0.00 | 0.00 | 54 | 994.0 |
| 20260505050546 | 56 | 187 | 3.0 | 3.0 | 0.00 | 0.00 | 0.00 | 55 | 993.8 |
| 20260505041514 | 60 | 191 | 2.0 | 3.0 | 0.00 | 0.00 | 0.00 | 41 | 993.2 |
| 20260505041012 | 60 | 155 | 3.0 | 5.0 | 0.00 | 0.00 | 0.00 | 41 | 993.3 |
| 20260505040509 | 60 | 169 | 4.0 | 6.0 | 0.00 | 0.00 | 0.00 | 41 | 993.4 |
| 20260505040006 | 60 | 178 | 5.0 | 6.0 | 0.00 | 0.00 | 0.00 | 41 | 993.3 |
| 20260505035501 | 60 | 190 | 2.0 | 2.0 | 0.00 | 0.00 | 0.00 | 41 | 993.2 |
| 20260505034959 | 60 | 193 | 1.0 | 1.0 | 0.00 | 0.00 | 0.00 | 42 | 993.3 |
| 20260505034455 | 60 | 184 | 0.0 | 0.0 | 0.00 | 0.00 | 0.00 | 43 | 993.3 |
| 20260505033952 | 60 | 185 | 0.0 | 0.0 | 0.00 | 0.00 | 0.00 | 44 | 993.2 |
| 20260505033449 | 60 | 183 | 2.0 | 2.0 | 0.00 | 0.00 | 0.00 | 43 | 993.2 |
| 20260505032947 | 60 | 180 | 2.0 | 2.0 | 0.00 | 0.00 | 0.00 | 44 | 992.9 |
| 20260505032444 | 60 | 182 | 2.0 | 2.0 | 0.00 | 0.00 | 0.00 | 44 | 992.9 |
| 20260505031940 | 60 | 193 | 1.0 | 1.0 | 0.00 | 0.00 | 0.00 | 44 | 993.2 |
| 20260505031438 | 61 | 183 | 1.0 | 2.0 | 0.00 | 0.00 | 0.00 | 44 | 992.8 |
| 20260505030935 | 61 | 186 | 3.0 | 5.0 | 0.00 | 0.00 | 0.00 | 45 | 992.8 |
| 20260505030430 | 61 | 194 | 2.0 | 2.0 | 0.00 | 0.00 | 0.00 | 45 | 992.8 |
| 20260505025926 | 61 | 181 | 2.0 | 2.0 | 0.00 | 0.00 | 0.00 | 43 | 992.8 |
| 20260505025423 | 62 | 181 | 2.0 | 2.0 | 0.00 | 0.00 | 0.00 | 42 | 992.9 |
| 20260505024922 | 62 | 178 | 1.0 | 1.0 | 0.00 | 0.00 | 0.00 | 42 | 992.8 |
| 20260505024419 | 62 | 185 | 3.0 | 5.0 | 0.00 | 0.00 | 0.00 | 41 | 992.5 |
| 20260505023916 | 62 | 189 | 3.0 | 7.0 | 0.00 | 0.00 | 0.00 | 40 | 992.7 |
| 20260505023413 | 63 | 179 | 5.0 | 7.0 | 0.00 | 0.00 | 0.00 | 40 | 992.4 |
| 20260505022910 | 63 | 185 | 3.0 | 5.0 | 0.00 | 0.00 | 0.00 | 39 | 992.6 |
| 20260505022408 | 63 | 195 | 1.0 | 2.0 | 0.00 | 0.00 | 0.00 | 39 | 992.6 |
| 20260505021905 | 63 | 194 | 1.0 | 2.0 | 0.00 | 0.00 | 0.00 | 39 | 992.6 |
| 20260505021401 | 63 | 210 | 3.0 | 3.0 | 0.00 | 0.00 | 0.00 | 39 | 992.5 |
| 20260505020857 | 64 | 177 | 3.0 | 5.0 | 0.00 | 0.00 | 0.00 | 39 | 992.5 |
| 20260505020353 | 64 | 201 | 2.0 | 3.0 | 0.00 | 0.00 | 0.00 | 39 | 992.1 |
| 20260505015850 | 64 | 214 | 3.0 | 5.0 | 0.00 | 0.00 | 0.00 | 39 | 992.2 |
| 20260505015347 | 64 | 180 | 3.0 | 5.0 | 0.00 | 0.00 | 0.00 | 38 | 992.1 |
| 20260505014844 | 65 | 211 | 3.0 | 5.0 | 0.00 | 0.00 | 0.00 | 38 | 992.4 |
| 20260505014341 | 66 | 194 | 3.0 | 5.0 | 0.00 | 0.00 | 0.00 | 37 | 992.1 |
| 20260505013838 | 68 | 196 | 2.0 | 2.0 | 0.00 | 0.00 | 0.00 | 30 | 992.5 |
| 20260505013335 | 69 | 183 | 1.0 | 2.0 | 0.00 | 0.00 | 0.00 | 30 | 992.2 |
| 20260505012833 | 70 | 186 | 4.0 | 5.0 | 0.00 | 0.00 | 0.00 | 29 | 992.4 |
| 20260505012331 | 70 | 151 | 1.0 | 2.0 | 0.00 | 0.00 | 0.00 | 29 | 992.2 |
| 20260505011826 | 69 | 187 | 0.0 | 0.0 | 0.00 | 0.00 | 0.00 | 30 | 992.2 |
| 20260505011323 | 69 | 184 | 1.0 | 1.0 | 0.00 | 0.00 | 0.00 | 30 | 992.2 |
| 20260505010819 | 68 | 187 | 1.0 | 1.0 | 0.00 | 0.00 | 0.00 | 30 | 992.5 |
| 20260505010315 | 69 | 186 | 0.0 | 0.0 | 0.00 | 0.00 | 0.00 | 29 | 992.5 |
| 20260505005812 | 69 | 185 | 0.0 | 0.0 | 0.00 | 0.00 | 0.00 | 30 | 992.7 |
| 20260505005309 | 69 | 185 | 0.0 | 0.0 | 0.00 | 0.00 | 0.00 | 30 | 992.6 |
| 20260505004806 | 69 | 185 | 0.0 | 1.0 | 0.00 | 0.00 | 0.00 | 30 | 992.5 |
| 20260505004302 | 68 | 186 | 0.0 | 0.0 | 0.00 | 0.00 | 0.00 | 31 | 992.6 |
| 20260505003800 | 68 | 185 | 0.0 | 1.0 | 0.00 | 0.00 | 0.00 | 32 | 992.6 |
| 20260505003257 | 68 | 187 | 0.0 | 1.0 | 0.00 | 0.00 | 0.00 | 32 | 992.5 |
| 20260505002753 | 68 | 185 | 1.0 | 2.0 | 0.00 | 0.00 | 0.00 | 31 | 992.6 |
| 20260505002251 | 68 | 186 | 0.0 | 0.0 | 0.00 | 0.00 | 0.00 | 32 | 992.7 |
| 20260505001748 | 69 | 185 | 1.0 | 1.0 | 0.00 | 0.00 | 0.00 | 31 | 992.7 |
| 20260505001245 | 70 | 187 | 0.0 | 0.0 | 0.00 | 0.00 | 0.00 | 31 | 992.7 |
| 20260505000742 | 71 | 190 | 0.0 | 0.0 | 0.00 | 0.00 | 0.00 | 30 | 992.7 |
| 20260505000240 | 71 | 187 | 1.0 | 1.0 | 0.00 | 0.00 | 0.00 | 30 | 992.8 |
| 20260504235736 | 70 | 186 | 0.0 | 0.0 | 0.00 | 0.00 | 0.00 | 31 | 992.7 |
| 20260504235233 | 71 | 252 | 2.0 | 5.0 | 0.00 | 0.00 | 0.00 | 30 | 992.7 |
| 20260504234730 | 70 | 187 | 0.0 | 0.0 | 0.00 | 0.00 | 0.00 | 28 | 992.8 |
| 20260504234227 | 71 | 192 | 2.0 | 2.0 | 0.00 | 0.00 | 0.00 | 27 | 992.8 |
| 20260504233724 | 68 | 187 | 1.0 | 1.0 | 0.00 | 0.00 | 0.00 | 30 | 992.7 |
| 20260504233219 | 68 | 181 | 3.0 | 3.0 | 0.00 | 0.00 | 0.00 | 30 | 992.8 |
| 20260504232717 | 68 | 187 | 2.0 | 2.0 | 0.00 | 0.00 | 0.00 | 32 | 993.2 |
| 20260504232214 | 68 | 187 | 1.0 | 1.0 | 0.00 | 0.00 | 0.00 | 33 | 993.3 |
| 20260504231710 | 68 | 184 | 0.0 | 0.0 | 0.00 | 0.00 | 0.00 | 33 | 993.3 |
| 20260504231207 | 68 | 195 | 2.0 | 5.0 | 0.00 | 0.00 | 0.00 | 33 | 993.5 |
| 20260504230703 | 68 | 173 | 3.0 | 3.0 | 0.00 | 0.00 | 0.00 | 33 | 993.2 |
| 20260504230202 | 70 | 193 | 1.0 | 2.0 | 0.00 | 0.00 | 0.00 | 32 | 993.4 |
| 20260504225700 | 72 | 189 | 2.0 | 3.0 | 0.00 | 0.00 | 0.00 | 30 | 993.2 |
| 20260504225155 | 74 | 185 | 0.0 | 1.0 | 0.00 | 0.00 | 0.00 | 24 | 992.9 |
| 20260504224653 | 72 | 188 | 0.0 | 0.0 | 0.00 | 0.00 | 0.00 | 26 | 992.9 |
| 20260504224149 | 71 | 187 | 0.0 | 0.0 | 0.00 | 0.00 | 0.00 | 27 | 993.0 |
| 20260504223647 | 70 | 257 | 2.0 | 2.0 | 0.00 | 0.00 | 0.00 | 28 | 992.9 |
| 20260504223142 | 69 | 343 | 3.0 | 5.0 | 0.00 | 0.00 | 0.00 | 29 | 992.9 |
| 20260504222639 | 69 | 325 | 5.0 | 6.0 | 0.00 | 0.00 | 0.00 | 29 | 992.8 |
| 20260504222136 | 68 | 233 | 4.0 | 5.0 | 0.00 | 0.00 | 0.00 | 29 | 992.9 |
| 20260504221634 | 69 | 296 | 3.0 | 3.0 | 0.00 | 0.00 | 0.00 | 29 | 992.9 |
| 20260504221131 | 70 | 91 | 5.0 | 6.0 | 0.00 | 0.00 | 0.00 | 28 | 993.0 |
| 20260504220627 | 71 | 184 | 2.0 | 2.0 | 0.00 | 0.00 | 0.00 | 28 | 992.9 |
| 20260504220125 | 70 | 193 | 0.0 | 1.0 | 0.00 | 0.00 | 0.00 | 28 | 993.2 |
| 20260504215621 | 69 | 158 | 1.0 | 1.0 | 0.00 | 0.00 | 0.00 | 29 | 992.9 |
| 20260504215118 | 69 | 165 | 1.0 | 1.0 | 0.00 | 0.00 | 0.00 | 30 | 993.2 |
| 20260504214614 | 68 | 181 | 2.0 | 2.0 | 0.00 | 0.00 | 0.00 | 31 | 993.3 |
| 20260504214110 | 67 | 180 | 2.0 | 3.0 | 0.00 | 0.00 | 0.00 | 32 | 993.4 |
| 20260504213607 | 66 | 212 | 3.0 | 3.0 | 0.00 | 0.00 | 0.00 | 33 | 993.4 |
| 20260504213104 | 66 | 180 | 3.0 | 5.0 | 0.00 | 0.00 | 0.00 | 35 | 993.5 |
| 20260504212600 | 65 | 188 | 1.0 | 2.0 | 0.00 | 0.00 | 0.00 | 35 | 993.3 |
| 20260504212057 | 64 | 180 | 2.0 | 3.0 | 0.00 | 0.00 | 0.00 | 37 | 993.3 |
| 20260504211554 | 65 | 148 | 5.0 | 8.0 | 0.00 | 0.00 | 0.00 | 38 | 993.5 |
| 20260504211051 | 65 | 207 | 3.0 | 6.0 | 0.00 | 0.00 | 0.00 | 37 | 993.6 |
| 20260504210548 | 66 | 164 | 3.0 | 5.0 | 0.00 | 0.00 | 0.00 | 37 | 993.6 |
| 20260504210045 | 66 | 171 | 1.0 | 2.0 | 0.00 | 0.00 | 0.00 | 36 | 993.8 |
| 20260504205543 | 66 | 185 | 3.0 | 3.0 | 0.00 | 0.00 | 0.00 | 36 | 993.8 |
| 20260504205040 | 68 | 184 | 1.0 | 1.0 | 0.00 | 0.00 | 0.00 | 28 | 993.6 |
| 20260504204538 | 68 | 159 | 2.0 | 2.0 | 0.00 | 0.00 | 0.00 | 28 | 993.5 |
| 20260504204037 | 68 | 183 | 1.0 | 2.0 | 0.00 | 0.00 | 0.00 | 29 | 993.6 |
| 20260504203535 | 67 | 335 | 3.0 | 3.0 | 0.00 | 0.00 | 0.00 | 30 | 993.4 |
| 20260504203032 | 67 | 148 | 1.0 | 2.0 | 0.00 | 0.00 | 0.00 | 31 | 993.6 |
| 20260504202527 | 68 | 169 | 2.0 | 3.0 | 0.00 | 0.00 | 0.00 | 32 | 993.8 |
| 20260504202024 | 68 | 180 | 4.0 | 6.0 | 0.00 | 0.00 | 0.00 | 32 | 993.6 |
| 20260504201521 | 68 | 169 | 1.0 | 2.0 | 0.00 | 0.00 | 0.00 | 31 | 993.6 |
| 20260504201019 | 69 | 196 | 4.0 | 6.0 | 0.00 | 0.00 | 0.00 | 30 | 993.6 |
| 20260504200515 | 70 | 187 | 1.0 | 1.0 | 0.00 | 0.00 | 0.00 | 29 | 993.6 |
| 20260504200012 | 70 | 156 | 0.0 | 1.0 | 0.00 | 0.00 | 0.00 | 29 | 993.6 |
| 20260504195508 | 69 | 185 | 0.0 | 0.0 | 0.00 | 0.00 | 0.00 | 29 | 993.5 |
| 20260504195005 | 69 | 186 | 1.0 | 1.0 | 0.00 | 0.00 | 0.00 | 30 | 993.7 |
| 20260504194501 | 69 | 183 | 0.0 | 1.0 | 0.00 | 0.00 | 0.00 | 29 | 993.7 |
| 20260504193957 | 70 | 186 | 0.0 | 0.0 | 0.00 | 0.00 | 0.00 | 29 | 993.7 |
| 20260504193454 | 70 | 186 | 0.0 | 0.0 | 0.00 | 0.00 | 0.00 | 29 | 994.0 |
| 20260504192953 | 70 | 193 | 1.0 | 1.0 | 0.00 | 0.00 | 0.00 | 29 | 993.8 |
| 20260504192449 | 70 | 184 | 1.0 | 2.0 | 0.00 | 0.00 | 0.00 | 29 | 993.8 |
| 20260504191949 | 70 | 185 | 1.0 | 1.0 | 0.00 | 0.00 | 0.00 | 29 | 994.0 |
| 20260504191446 | 70 | 186 | 0.0 | 0.0 | 0.00 | 0.00 | 0.00 | 29 | 993.8 |
| 20260504190941 | 70 | 201 | 0.0 | 1.0 | 0.00 | 0.00 | 0.00 | 29 | 994.0 |
| 20260504190437 | 70 | 185 | 0.0 | 0.0 | 0.00 | 0.00 | 0.00 | 29 | 994.0 |
| 20260504185934 | 71 | 179 | 0.0 | 1.0 | 0.00 | 0.00 | 0.00 | 29 | 994.2 |
| 20260504185432 | 71 | 185 | 0.0 | 0.0 | 0.00 | 0.00 | 0.00 | 29 | 994.2 |
| 20260504184927 | 71 | 187 | 1.0 | 1.0 | 0.00 | 0.00 | 0.00 | 29 | 994.1 |
| 20260504184423 | 71 | 180 | 1.0 | 1.0 | 0.00 | 0.00 | 0.00 | 29 | 994.4 |
| 20260504183919 | 71 | 186 | 0.0 | 1.0 | 0.00 | 0.00 | 0.00 | 29 | 994.3 |
| 20260504183417 | 71 | 197 | 0.0 | 1.0 | 0.00 | 0.00 | 0.00 | 29 | 994.3 |
| 20260504182915 | 71 | 185 | 2.0 | 2.0 | 0.00 | 0.00 | 0.00 | 30 | 994.3 |
| 20260504182411 | 70 | 187 | 0.0 | 1.0 | 0.00 | 0.00 | 0.00 | 30 | 994.4 |
| 20260504181908 | 70 | 197 | 3.0 | 5.0 | 0.00 | 0.00 | 0.00 | 30 | 994.5 |
| 20260504181405 | 70 | 209 | 3.0 | 3.0 | 0.00 | 0.00 | 0.00 | 31 | 994.5 |
| 20260504180904 | 69 | 175 | 0.0 | 1.0 | 0.00 | 0.00 | 0.00 | 31 | 994.5 |
| 20260504180402 | 70 | 181 | 2.0 | 3.0 | 0.00 | 0.00 | 0.00 | 31 | 994.4 |
| 20260504175900 | 69 | 187 | 1.0 | 2.0 | 0.00 | 0.00 | 0.00 | 31 | 994.6 |
| 20260504175356 | 70 | 184 | 1.0 | 3.0 | 0.00 | 0.00 | 0.00 | 31 | 994.6 |
| 20260504174855 | 70 | 166 | 3.0 | 5.0 | 0.00 | 0.00 | 0.00 | 31 | 994.6 |
| 20260504174352 | 71 | 163 | 2.0 | 3.0 | 0.00 | 0.00 | 0.00 | 31 | 994.8 |
| 20260504173849 | 71 | 167 | 1.0 | 3.0 | 0.00 | 0.00 | 0.00 | 30 | 994.9 |
| 20260504173345 | 71 | 188 | 3.0 | 5.0 | 0.00 | 0.00 | 0.00 | 31 | 994.9 |
| 20260504172842 | 69 | 166 | 3.0 | 5.0 | 0.00 | 0.00 | 0.00 | 32 | 994.9 |
| 20260504172339 | 70 | 179 | 3.0 | 5.0 | 0.00 | 0.00 | 0.00 | 32 | 995.0 |
| 20260504171835 | 70 | 187 | 2.0 | 3.0 | 0.00 | 0.00 | 0.00 | 31 | 995.0 |
| 20260504171332 | 69 | 230 | 3.0 | 5.0 | 0.00 | 0.00 | 0.00 | 32 | 994.9 |
| 20260504170830 | 69 | 161 | 5.0 | 7.0 | 0.00 | 0.00 | 0.00 | 32 | 995.1 |
| 20260504170326 | 69 | 196 | 2.0 | 3.0 | 0.00 | 0.00 | 0.00 | 32 | 995.0 |
| 20260504160244 | 66 | 193 | 1.0 | 2.0 | 0.00 | 0.00 | 0.00 | 35 | 995.2 |
| 20260504150710 | 63 | 188 | 2.0 | 2.0 | 0.00 | 0.00 | 0.00 | 40 | 995.6 |
| 20260504150207 | 62 | 201 | 2.0 | 3.0 | 0.00 | 0.00 | 0.00 | 40 | 995.7 |
| 20260504141136 | 60 | 184 | 0.0 | 0.0 | 0.00 | 0.00 | 0.00 | 42 | 995.4 |
| 20260504140633 | 60 | 182 | 1.0 | 1.0 | 0.00 | 0.00 | 0.00 | 43 | 995.6 |
| 20260504140128 | 59 | 183 | 0.0 | 1.0 | 0.00 | 0.00 | 0.00 | 43 | 995.7 |
| 20260504130556 | 55 | 187 | 1.0 | 1.0 | 0.00 | 0.00 | 0.00 | 48 | 995.8 |